Location: Spring Creek
(38.2870°N, 100.2160°W)
Time: 08:13:22
(UTC+00:00)

Cosmos 1844 - Pass Details

Date: 08 May 2021
Orbit: 824 x 866 km, 70.9° (Epoch: 21 June)

Event Time Altitude Azimuth Distance (km) Brightness Sun altitude
Rises 02:47:25 0° 191° (SSW) 3,423 6.6 -12.7°
Reaches altitude 10° 02:49:54 10° 189° (S) 2,486 5.9 -13.1°
Maximum altitude 02:55:32 63° 109° (ESE) 947 3.7 -14.0°
Drops below altitude 10° 03:01:09 10° 29° (NNE) 2,475 6.2 -14.9°
Sets 03:03:36 0° 26° (NNE) 3,408 7.0 -15.3°
